Location: Little Cypress
(30.1590°N, 93.7750°W)
Time: 23:50:52
(UTC-05:00)

Daily predictions for brighter satellites

Satellite Brightness Start Highest point End
(mag) Time Altitude Azimuth Time Altitude Azimuth Time Altitude Azimuth
Delta 2 Rocket 4.3 20:33:24 10° WSW 20:39:40 64° S 20:47:03 10° E
H-2A R/B 3.5 20:42:01 10° S 20:45:53 58° W 20:49:47 10° NNW
CENTAUR R/B 3.7 20:43:26 10° SE 20:47:04 17° ESE 20:50:53 10° ENE
GPS 2-04 Rocket1 3.3 20:44:51 10° W 20:48:33 51° NNW 20:52:04 10° ENE
Cosmos 1315 Rocket 2.8 20:45:25 10° S 20:49:20 60° E 20:53:19 10° NNE
In-Cosmos 22 Rocket 4.4 20:44:35 10° S 20:50:10 59° E 20:55:53 10° NNE
Meteor 2-10 Rocket 4.2 20:45:34 10° N 20:51:07 44° E 20:56:35 10° SSE
Cosmos 2082 Rocket 2.3 20:45:57 10° NNW 20:51:34 64° ENE 20:57:10 10° SSE
ISS -3.7 20:52:48 10° SSW 20:55:57 51° SE 20:59:06 10° NE
COSMOS 2455 3.3 20:52:49 10° S 20:58:17 38° ESE 21:03:47 10° NE
COSMOS 2487 2.9 20:58:45 10° N 21:02:09 44° ENE 21:05:00 14° SE
Resurs 1-3 3.6 20:59:49 10° SSE 21:04:11 85° WSW 21:08:35 10° NNW
Cosmos 1833 Rocket 2.7 20:59:18 10° NNW 21:04:57 81° ENE 21:10:33 10° SSE
CZ-2D R/B 3.8 21:02:59 10° S 21:06:49 59° W 21:10:40 10° NNW
Cosmos 1470 Rocket 4.0 21:09:34 10° SSW 21:14:01 69° W 21:18:29 10° N
Cosmos 1892 2.8 21:10:17 10° S 21:14:02 53° E 21:17:48 10° NNE
Cosmos 1937 Rocket 3.5 21:09:02 10° SSW 21:14:09 84° WNW 21:19:19 10° NNE
Tiangong 2 3.9 21:15:46 10° N 21:16:52 11° NNE 21:17:58 10° NNE
Cosmos 2298 Rocket 4.3 21:12:23 10° SSW 21:17:39 71° WNW 21:22:56 10° N
Cosmos 2150 Rocket 4.2 21:12:21 10° SSW 21:17:45 82° WNW 21:23:06 10° NNE
Meteor 1-29 3.2 21:19:43 10° NNE 21:23:06 47° E 21:25:32 17° S
USA 186 2.9 21:22:42 10° SSW 21:24:58 32° W 21:27:23 10° NNW
OAO 2 Rocket 3.4 21:20:28 10° WNW 21:25:30 69° NNE 21:28:53 20° E
Cosmos 1943 Rocket 3.0 21:24:18 18° SE 21:27:05 27° ESE 21:31:42 10° NE
Tsikada Rocket 4.3 21:21:47 10° SSW 21:28:01 72° W 21:34:13 10° N
Lacrosse 5 rocket 0.8 21:26:09 10° SSW 21:29:42 71° SE 21:33:16 10° NE
Cosmos 1939 Rocket 2.8 21:27:19 17° SSE 21:30:29 83° ENE 21:34:37 10° N
Cosmos 1869 Rocket 4.0 21:30:49 26° SE 21:32:38 38° E 21:36:40 10° NNE
FUSE 4.3 21:32:13 10° WSW 21:37:13 43° S 21:39:20 29° ESE
Cosmos 1933 4.0 21:33:51 10° NNW 21:37:46 54° W 21:41:26 11° S
CZ-4B DEB 2.9 21:37:43 44° E 21:37:50 44° ENE 21:40:40 10° N
Delta 168 3.4 21:34:22 10° WSW 21:38:03 46° S 21:39:53 31° ESE
SL-19 R/B 4.3 21:36:01 16° SSE 21:40:40 87° WSW 21:46:37 10° NNW
Cosmos 2369 Rocket 2.1 21:35:15 10° SSW 21:40:51 74° ESE 21:46:31 10° NNE
Cosmos 1346 Rocket 2.8 21:37:09 10° N 21:41:05 59° E 21:42:26 37° SE
Aurora 2 Rocket 3.4 21:39:05 10° WSW 21:43:30 30° SSW 21:44:23 27° S
ERS-1 Rocket 3.4 21:43:22 31° ESE 21:45:11 43° ENE 21:49:55 10° N
Cosmos 1606 4.4 21:48:55 10° NNE 21:50:59 20° ENE 21:50:59 20° ENE
EO 1 Delta rocket 4.2 21:50:39 27° SSE 21:53:39 81° E 22:00:03 10° N
Shenzhou-11 Module 4.2 21:53:48 10° NNW 21:56:03 18° NNE 21:56:30 18° NE
Cosmos 1634 Rocket 4.0 21:50:00 10° N 21:56:17 70° E 21:59:34 30° SSE
GPS 2-17 Rocket1 4.5 21:53:15 10° SW 21:55:59 21° SSW 21:55:59 21° SSW
Helios 1B rocket 4.2 22:01:18 10° N 22:04:59 32° WNW 22:08:38 10° SW
Resurs 01 Rocket 4.4 22:02:59 10° SW 22:05:10 14° W 22:07:22 10° WNW
SAR-Lupe-4 3.6 22:06:47 67° SW 22:07:03 72° WSW 22:10:37 10° NNW
USA 215 3.9 22:04:05 28° E 22:07:04 44° NE 22:13:11 10° NNW
Hubble Space Telescope 2.2 22:08:03 10° WSW 22:10:54 25° SW 22:10:54 25° SW
YAOGAN 6 3.9 22:10:30 28° SW 22:11:44 36° W 22:15:11 10° NNW
Cosmos 1782 3.4 22:11:47 10° N 22:14:58 46° NE 22:14:58 46° NE
Lacrosse 4 Rocket 3.9 22:14:14 10° NNE 22:15:43 12° NE 22:15:43 12° NE
ATLAS 5 CENTAUR R/B 4.0 22:11:42 10° N 22:16:21 22° NE 22:17:52 20° ENE
USA 245 4.5 22:17:09 49° SE 22:18:29 62° ENE 22:24:43 10° N
NOSS 3-3 (A) 4.5 22:10:47 10° NNW 22:18:33 88° WSW 22:21:56 40° SSE
NOSS 3-3 (C) 4.5 22:10:53 10° NNW 22:18:38 89° WSW 22:22:02 40° SSE
MetOp-B 4.0 22:17:32 55° SSE 22:18:42 78° ENE 22:24:03 10° N
Milstar 3 3.3 22:10:21 10° WSW 22:22:02 65° SSE 22:25:14 38° E
Cosmos 372 Rocket 3.8 22:22:58 46° SSW 22:24:32 88° WNW 22:29:40 10° NNE
Cosmos 1125 Rocket 3.7 22:22:28 23° SSW 22:25:47 69° WNW 22:31:01 10° N
ARGOS 3.0 22:25:05 64° SE 22:25:48 74° ENE 22:31:10 10° N
Aureole 3 4.4 22:26:41 33° WNW 22:26:41 33° WNW 22:29:06 10° NNW
GPS 2-04 Rocket1 4.0 22:25:18 10° WNW 22:28:27 32° N 22:28:27 32° N
Cosmos 2279 Rocket 3.9 22:26:14 10° N 22:32:30 80° E 22:33:42 60° SSE
ISS -0.4 22:31:09 10° WNW 22:32:37 12° NW 22:34:05 10° N
CENTAUR R/B 3.1 22:31:13 10° SW 22:36:54 54° WNW 22:43:19 10° NNE
Cosmos 1825 3.3 22:37:59 42° WNW 22:37:59 42° WNW 22:41:08 10° N
Delta 2 Rocket 4.4 22:31:34 10° W 22:38:25 59° S 22:39:33 54° SSE
Cosmos 1408 4.1 22:40:28 36° WNW 22:40:28 36° WNW 22:43:33 10° NNW
SL-08 RB Rocket 3.9 22:41:05 70° N 22:41:05 70° N 22:45:15 10° N
Terra 3.4 22:45:22 24° NE 22:45:22 24° NE 22:47:58 10° NNE
H-2A R/B 2.1 22:44:21 71° ENE 22:44:21 71° ENE 22:49:32 10° N
OAO 3 Copernicus 4.4 22:39:26 10° W 22:44:25 70° NNW 22:44:25 70° NNW
Cosmos 2180 Rocket 4.4 22:39:02 10° N 22:45:27 84° E 22:46:11 71° SSE
SPOT 5 3.1 22:49:17 75° WSW 22:49:21 75° WSW 22:54:43 10° NNW
Okean 1-7 4.3 22:48:47 10° NNW 22:52:43 37° W 22:52:43 37° W
Tiangong 2 4.2 22:51:23 10° NW 22:52:13 16° NW 22:52:13 16° NW
Cosmos 2344 3.9 22:53:00 10° SW 23:00:39 64° WNW 23:08:41 10° NNE
Cosmos 1943 Rocket 3.8 23:05:46 10° SW 23:10:38 30° WNW 23:15:31 10° N
USA 215 4.2 23:51:26 37° W 23:51:26 37° W 23:56:06 10° WNW
Lacrosse 4 Rocket 4.1 23:50:47 10° NW 23:52:03 18° NW 23:52:03 18° NW
